Terug naar catalogus

ARIANE 5 DEB

SYLDA

ActiefGTO
NORAD 27952·DEBRIS·🇫🇷 France

Gelanceerd Sep 27, 2003 vanaf Guiana Space Centre

Loading…

TLE

VerouderendSource: Space-Track

Epoch: Sep 14, 2026, 05:01 UTC

1 27952U 03043F   26257.20930657 -.00000121  00000-0  15074-3 0  9994
2 27952   7.2068 274.8111 7143877 223.1392  50.5219  2.26420712189481

Volg ARIANE 5 DEB in realtime met AllMySat

Download on the App Store